{"data":{"norad_id":45746,"intl_designator":"2020-038S","name":"STARLINK-1504","alt_names":[],"object_type":"PAYLOAD","status":"ACTIVE","operator":null,"country":"US","launch_date":"2020-06-13","launch_site_code":"AFETR","launch_vehicle":null,"mission":null,"orbit_class":"UNKNOWN","rcs_meters":null,"size_class":null,"mass_kg":null,"dimensions":null,"purposes":["comms"],"wikipedia_slug":null,"has_3d_model":false,"image_url":null,"decayed_at":null,"tle_current":{"epoch":"2026-09-20T00:50:07.538208Z","epoch_age_seconds":58509,"freshness":"FRESH","line1":"1 45746U 20038S   26263.03480947  .00037000  00000+0  34855-3 0  9990","line2":"2 45746  53.0163 275.2876 0003437  64.1737 295.9632 15.66736878347847","mean_motion":15.66736878,"eccentricity":0.0003437,"inclination_deg":53.0163,"raan_deg":275.2876,"arg_perigee_deg":64.1737,"mean_anomaly_deg":295.9632,"bstar":0.00034855,"rev_number":34784,"period_min":91.910774567215,"perigee_km":365.92940638195,"apogee_km":370.56687152647,"semimajor_km":6746.3851389542,"source":"CELESTRAK","updated_at":"2026-09-20T09:00:38.456450Z"}}}